Location: *
(13.2257°S, 48.7193°W)
Time: 10:38:57
(UTC+00:00)

Cosmos 2297 Rocket - Pass Details

Date: 13 February 2026
Orbit: 838 x 843 km, 71.0° (Epoch: 11 March)

Event Time Altitude Azimuth Distance (km) Brightness Sun altitude
Rises 08:23:17 0° 356° (N) 3,373 5.1 -12.4°
Reaches altitude 10° 08:25:47 10° 1° (N) 2,444 4.4 -11.9°
Maximum altitude 08:31:12 50° 76° (ENE) 1,056 3.1 -10.6°
Drops below altitude 10° 08:36:38 10° 150° (SSE) 2,461 5.3 -9.3°
Sets 08:39:09 0° 155° (SSE) 3,399 6.0 -8.7°
